Hourly Data Report for February 10, 2019

MIRAMICHI RCS
NEW BRUNSWICK
Current Station Operator: ECCC - MSC

47°00'34.000" N
65°27'54.000" W
33.00 m
8100989
71744
ACQ

Download Data

Hourly Data (February 2019)
Hourly Data Report for February 10, 2019
TIME
LST
Temp Definition
°C
Dew Point Definition
°C
Rel Hum Definition
%
Precip. Amount Definition
mm

Wind Dir Definition
10's deg

Wind Spd Definition
km/h
Visibility Definition
km
Stn Press Definition
kPa
Hmdx Definition


Wind Chill Definition


Weather Definition


00:00 -11.9 -20.2 50 0.0 29 24   101.36   -21 LegendNANA
01:00 -11.9 -20.4 49 0.0 28 27   101.35   -22 LegendNANA
02:00 -11.9 -20.5 49 0.0 27 25   101.37   -21 LegendNANA
03:00 -12.1 -20.6 49 0.0 27 27   101.33   -22 LegendNANA
04:00 -12.3 -20.7 49 0.0 27 29   101.31   -22 LegendNANA
05:00 -12.4 -20.6 50 0.0 28 30   101.34   -23 LegendNANA
06:00 -12.6 -20.4 52 0.0 29 26   101.38   -22 LegendNANA
07:00 -12.7 -20.7 51 0.0 28 26   101.42   -22 LegendNANA
08:00 -12.7 -21.1 50 0.0 29 30   101.45   -23 LegendNANA
09:00 -12.1 -21.0 48 0.0 29 30   101.48   -22 LegendNANA
10:00 -11.0 -20.6 45 0.0 28 31   101.45   -21 LegendNANA
11:00 -9.9 -20.7 41 0.0 30 22   101.48   -18 LegendNANA
12:00 -9.2 -20.3 40 0.0 28 28   101.41   -18 LegendNANA
13:00 -8.5 -19.6 40 0.0 28 28   101.39   -17 LegendNANA
14:00 -8.0 -19.4 40 0.0 28 31   101.35   -17 LegendNANA
15:00 -7.6 -19.2 39 0.0 29 31   101.30   -17 LegendNANA
16:00 -7.6 -19.6 38 0.0 28 34   101.29   -17 LegendNANA
17:00 -8.5 -19.8 40 0.0 28 34   101.30   -18 LegendNANA
18:00 -10.1 -19.7 45 0.0 28 25   101.38   -19 LegendNANA
19:00 -10.6 -20.6 44 0.0 28 28   101.39   -20 LegendNANA
20:00 -11.2 -20.9 45 0.0 28 27   101.38   -21 LegendNANA
21:00 -11.3 -21.0 44 0.0 29 36   101.32   -22 LegendNANA
22:00 -11.8 -21.5 45 0.0 29 34   101.34   -22 LegendNANA
23:00 -12.4 -21.2 48 0.0 29 25   101.35   -22 LegendNANA

Notes on Data Quality.

Legend

  • E = Estimated
  • M = Missing
  • NA = Not Available*
  • [empty] = Indicates an unobserved value
Date modified: